This demonstration page uses our WeatherBlox Daily Observations layout. Learn more.

Left ArrowRight Arrow

Hourly Observations for August 6, 2018

Temp ( °F °C ) Dew Point ( °F °C ) Humidity (%) Winds ( mph kmh ) Pressure ( in mb ) Visibility ( mi km ) Precip ( " mm )
12:59 am 00:59 Clear 77 25 73 22.8 88 88 Calm 30.16 1021 10 16 0.00 0.00
1:59 am 01:59 Clear 77 25 73 22.8 88 88 Calm 30.15 1021 10 16 0.00 0.00
2:59 am 02:59 Clear 76 24.4 73 22.8 91 91 Calm 30.14 1021 9 14 0.00 0.00
3:59 am 03:59 Clear 76 24.4 73 22.8 91 91 Calm 30.14 1021 8 13 0.00 0.00
4:59 am 04:59 Mostly Clear 75 23.9 73 22.8 94 94 SW 3 6 30.14 1021 7 11 0.00 0.00
5:59 am 05:59 Partly Cloudy 74 23.3 72 22.2 94 94 SSW 3 6 30.14 1021 7 11 0.00 0.00
6:59 am 06:59 Partly Cloudy 75 23.9 73 22.8 94 94 SW 3 6 30.15 1021 7 11 0.00 0.00
7:59 am 07:59 Mostly Sunny 80 26.7 75 23.9 85 85 Calm 30.15 1021 7 11 0.00 0.00
8:59 am 08:59 Mostly Sunny 83 28.3 75 23.9 77 77 WNW 3 6 30.15 1021 9 14 0.00 0.00
9:59 am 09:59 Mostly Sunny 84 28.9 72 22.2 67 67 VRB 3 6 30.15 1021 9 14 0.00 0.00
10:59 am 10:59 Partly Cloudy 87 30.6 72 22.2 61 61 NNW 5 7 30.14 1021 9 14 0.00 0.00
11:59 am 11:59 Partly Cloudy 88 31.1 74 23.3 63 63 VRB 6 9 30.14 1021 9 14 0.00 0.00
12:59 pm 12:59 Partly Cloudy 89 31.7 75 23.9 63 63 ENE 7 11 30.13 1020 9 14 0.00 0.00
1:59 pm 13:59 Mostly Cloudy with Thunderstorms 89 31.7 73 22.8 59 59 ENE 8 13 30.11 1020 9 14 0.00 0.00
2:59 pm 14:59 Mostly Cloudy with Thunderstorms 85 29.4 70 21.1 61 61 SE 8 13 30.11 1020 10 16 0.00 0.00
3:59 pm 15:59 Mostly Cloudy with Thunderstorms 86 30 69 20.6 57 57 SSE 14 22 30.10 1019 10 16 0.00 0.00
4:59 pm 16:59 Mostly Cloudy with Thunderstorms 84 28.9 72 22.2 67 67 S 7 11 30.09 1019 10 16 0.00 0.00
5:59 pm 17:59 Mostly Cloudy with Thunderstorms 83 28.3 70 21.1 65 65 S 6 9 30.08 1019 10 16 0.00 0.00
6:28 pm 18:28 Mostly Cloudy 83 28.3 70 21.1 65 65 SSW 3 6 30.09 1019 10 16 0.00 0.00
6:59 pm 18:59 Mostly Cloudy 83 28.3 70 21.1 65 65 S 5 7 30.07 1018 10 16 0.00 0.00
7:59 pm 19:59 Mostly Cloudy 81 27.2 70 21.1 69 69 S 7 11 30.07 1018 10 16 0.00 0.00
8:59 pm 20:59 Mostly Cloudy 80 26.7 72 22.2 76 76 S 6 9 30.09 1019 10 16 0.00 0.00
9:59 pm 21:59 Mostly Cloudy 80 26.7 72 22.2 76 76 SSE 5 7 30.10 1019 10 16 0.00 0.00
10:59 pm 22:59 Mostly Cloudy 79 26.1 72 22.2 79 79 S 5 7 30.10 1019 10 16 0.00 0.00
11:59 pm 23:59 Mostly Cloudy 78 25.6 72 22.2 82 82 SSE 5 7 30.09 1019 10 16 0.00 0.00

Powered by AerisWeather